^^
Your Local Weather - Clay, NY Station Historical Data
Daily Summary for February 2, 2018 Units:  English    Metric   Both
« Previous Day
Next Day »
Daily Weekly Monthly Yearly Custom
  High: Low: Average:
Temperature: 23.9 °F 10.4 °F 14.1 °F
Dew Point: 15.7 °F 5.2 °F 8.6 °F
Humidity: 86% 63% 79%
Wind Speed: 7.0mph 1.0mph 3.3mph
Wind Gust: 11.0mph - -
Wind- - WNW
Pressure: 30.30 in 29.93 in -
Precipitation: 0.00 in    
Historical Graphs
 
 
Tabular Data for February 2, 2018
Time Temperature Dew Point Pressure Wind Wind Speed Wind Gust Humidity Rainfall Rate (Hourly) solar
00:00 23.7 °F 15.7 °F 29.93 in NW 5.0 mph 5.0 mph 71% 0.00 in 0 W/m2
00:06 23.8 °F 15.1 °F 29.94 in WNW 4.0 mph 5.0 mph 69% 0.00 in 0 W/m2
00:12 23.9 °F 14.5 °F 29.94 in WNW 4.0 mph 7.0 mph 67% 0.00 in 0 W/m2
00:18 23.8 °F 14.4 °F 29.93 in WNW 4.0 mph 8.0 mph 67% 0.00 in 0 W/m2
00:24 23.9 °F 14.5 °F 29.94 in NW 4.0 mph 5.0 mph 67% 0.00 in 0 W/m2
00:30 23.8 °F 14.4 °F 29.94 in West 4.0 mph 6.0 mph 67% 0.00 in 0 W/m2
00:36 23.7 °F 14.7 °F 29.93 in WNW 4.0 mph 6.0 mph 68% 0.00 in 0 W/m2
00:42 23.5 °F 14.8 °F 29.94 in WNW 4.0 mph 5.0 mph 69% 0.00 in 0 W/m2
00:48 23.4 °F 14.7 °F 29.94 in NNW 5.0 mph 9.0 mph 69% 0.00 in 0 W/m2
00:54 23.1 °F 14.8 °F 29.94 in NW 5.0 mph 5.0 mph 70% 0.00 in 0 W/m2
01:00 23.0 °F 14.7 °F 29.94 in WNW 4.0 mph 4.0 mph 70% 0.00 in 0 W/m2
01:06 22.6 °F 14.3 °F 29.94 in NW 5.0 mph 7.0 mph 70% 0.00 in 0 W/m2
01:12 22.2 °F 14.2 °F 29.95 in NW 5.0 mph 6.0 mph 71% 0.00 in 0 W/m2
01:18 22.0 °F 14.3 °F 29.95 in NNW 4.0 mph 6.0 mph 72% 0.00 in 0 W/m2
01:24 22.0 °F 14.3 °F 29.95 in NW 3.0 mph 7.0 mph 72% 0.00 in 0 W/m2
01:30 21.8 °F 13.8 °F 29.95 in NNW 5.0 mph 5.0 mph 71% 0.00 in 0 W/m2
01:36 21.5 °F 13.2 °F 29.94 in NW 5.0 mph 6.0 mph 70% 0.00 in 0 W/m2
01:42 21.4 °F 13.1 °F 29.95 in West 4.0 mph 4.0 mph 70% 0.00 in 0 W/m2
01:48 21.4 °F 13.1 °F 29.96 in NW 4.0 mph 6.0 mph 70% 0.00 in 0 W/m2
01:54 21.3 °F 13.0 °F 29.96 in NW 3.0 mph 6.0 mph 70% 0.00 in 0 W/m2
02:00 21.2 °F 12.6 °F 29.96 in NNW 4.0 mph 6.0 mph 69% 0.00 in 0 W/m2
02:06 21.2 °F 12.6 °F 29.96 in WNW 4.0 mph 6.0 mph 69% 0.00 in 0 W/m2
02:12 21.1 °F 12.5 °F 29.96 in NNW 5.0 mph 6.0 mph 69% 0.00 in 0 W/m2
02:18 20.9 °F 12.3 °F 29.97 in NW 5.0 mph 7.0 mph 69% 0.00 in 0 W/m2
02:24 20.8 °F 11.9 °F 29.97 in NNW 5.0 mph 8.0 mph 68% 0.00 in 0 W/m2
02:30 20.6 °F 11.4 °F 29.97 in WNW 4.0 mph 4.0 mph 67% 0.00 in 0 W/m2
02:36 20.4 °F 10.5 °F 29.97 in NW 5.0 mph 8.0 mph 65% 0.00 in 0 W/m2
02:42 20.2 °F 10.3 °F 29.98 in NNW 6.0 mph 6.0 mph 65% 0.00 in 0 W/m2
02:48 20.1 °F 9.9 °F 29.98 in WNW 5.0 mph 6.0 mph 64% 0.00 in 0 W/m2
02:54 20.1 °F 9.9 °F 29.97 in NNW 4.0 mph 5.0 mph 64% 0.00 in 0 W/m2
03:00 20.1 °F 9.9 °F 29.97 in NW 3.0 mph 3.0 mph 64% 0.00 in 0 W/m2
03:06 20.0 °F 9.4 °F 29.98 in NW 4.0 mph 6.0 mph 63% 0.00 in 0 W/m2
03:12 19.9 °F 9.3 °F 29.98 in NW 4.0 mph 5.0 mph 63% 0.00 in 0 W/m2
03:18 19.7 °F 9.5 °F 29.98 in NNW 4.0 mph 5.0 mph 64% 0.00 in 0 W/m2
03:24 19.5 °F 8.9 °F 29.98 in NW 5.0 mph 6.0 mph 63% 0.00 in 0 W/m2
03:30 19.5 °F 9.3 °F 29.98 in NNW 4.0 mph 4.0 mph 64% 0.00 in 0 W/m2
03:36 19.5 °F 8.9 °F 29.98 in WNW 4.0 mph 4.0 mph 63% 0.00 in 0 W/m2
03:42 19.4 °F 8.8 °F 29.99 in NNW 3.0 mph 4.0 mph 63% 0.00 in 0 W/m2
03:48 19.2 °F 9.4 °F 29.99 in NW 4.0 mph 7.0 mph 65% 0.00 in 0 W/m2
03:54 19.0 °F 9.5 °F 29.99 in NNW 4.0 mph 5.0 mph 66% 0.00 in 0 W/m2
04:00 18.9 °F 9.4 °F 29.99 in North 4.0 mph 7.0 mph 66% 0.00 in 0 W/m2
04:06 18.8 °F 9.3 °F 29.99 in WNW 4.0 mph 7.0 mph 66% 0.00 in 0 W/m2
04:12 18.7 °F 9.6 °F 29.99 in NW 3.0 mph 4.0 mph 67% 0.00 in 0 W/m2
04:18 18.6 °F 9.1 °F 29.99 in WNW 3.0 mph 5.0 mph 66% 0.00 in 0 W/m2
04:24 18.4 °F 9.3 °F 29.99 in NW 2.0 mph 4.0 mph 67% 0.00 in 0 W/m2
04:30 18.3 °F 8.8 °F 29.99 in NW 2.0 mph 2.0 mph 66% 0.00 in 0 W/m2
04:36 18.3 °F 8.8 °F 29.99 in NNW 2.0 mph 3.0 mph 66% 0.00 in 0 W/m2
04:42 18.2 °F 9.1 °F 29.99 in NNW 2.0 mph 2.0 mph 67% 0.00 in 0 W/m2
04:48 18.2 °F 9.1 °F 29.99 in NNW 1.0 mph 3.0 mph 67% 0.00 in 0 W/m2
04:54 18.2 °F 9.4 °F 29.99 in NNW 2.0 mph 2.0 mph 68% 0.00 in 0 W/m2
05:00 18.2 °F 9.7 °F 29.99 in NW 1.0 mph 3.0 mph 69% 0.00 in 0 W/m2
05:06 18.1 °F 9.6 °F 30.00 in NW 1.0 mph 4.0 mph 69% 0.00 in 0 W/m2
05:12 18.1 °F 10.3 °F 30.00 in NW 2.0 mph 2.0 mph 71% 0.00 in 0 W/m2
05:18 17.8 °F 10.3 °F 30.00 in WNW 2.0 mph 4.0 mph 72% 0.00 in 0 W/m2
05:24 17.8 °F 10.6 °F 30.01 in WNW 2.0 mph 2.0 mph 73% 0.00 in 0 W/m2
05:30 17.7 °F 10.8 °F 30.00 in WNW 2.0 mph 2.0 mph 74% 0.00 in 0 W/m2
05:36 17.7 °F 11.1 °F 30.00 in WNW 1.0 mph 2.0 mph 75% 0.00 in 0 W/m2
05:42 17.5 °F 11.5 °F 30.01 in WNW 1.0 mph 1.0 mph 77% 0.00 in 0 W/m2
05:48 17.4 °F 11.7 °F 30.01 in WSW 1.0 mph 2.0 mph 78% 0.00 in 0 W/m2
05:54 17.4 °F 12.0 °F 30.01 in WSW 1.0 mph 3.0 mph 79% 0.00 in 0 W/m2
06:00 17.3 °F 12.2 °F 30.01 in WSW 1.0 mph 2.0 mph 80% 0.00 in 0 W/m2
06:06 17.3 °F 12.5 °F 30.01 in WSW 1.0 mph 3.0 mph 81% 0.00 in 0 W/m2
06:12 17.3 °F 12.7 °F 30.01 in WSW 2.0 mph 2.0 mph 82% 0.00 in 0 W/m2
06:18 17.2 °F 12.9 °F 30.01 in WNW 2.0 mph 2.0 mph 83% 0.00 in 0 W/m2
06:24 17.2 °F 12.9 °F 30.01 in WNW 1.0 mph 2.0 mph 83% 0.00 in 0 W/m2
06:30 17.3 °F 13.3 °F 30.01 in West 1.0 mph 4.0 mph 84% 0.00 in 0 W/m2
06:36 17.2 °F 13.2 °F 30.01 in NNW 1.0 mph 4.0 mph 84% 0.00 in 0 W/m2
06:42 17.1 °F 13.1 °F 30.01 in WSW 2.0 mph 2.0 mph 84% 0.00 in 0 W/m2
06:48 17.2 °F 13.5 °F 30.01 in WSW 1.0 mph 3.0 mph 85% 0.00 in 0 W/m2
06:54 17.1 °F 13.4 °F 30.02 in WNW 1.0 mph 2.0 mph 85% 0.00 in 0 W/m2
07:00 17.2 °F 13.5 °F 30.02 in WNW 1.0 mph 1.0 mph 85% 0.00 in 0 W/m2
07:06 17.2 °F 13.5 °F 30.02 in WNW 1.0 mph 1.0 mph 85% 0.00 in 0 W/m2
07:12 17.1 °F 13.6 °F 30.02 in WNW 1.0 mph 2.0 mph 86% 0.00 in 0 W/m2
07:18 17.1 °F 13.6 °F 30.02 in WNW 1.0 mph 4.0 mph 86% 0.00 in 0 W/m2
07:24 17.0 °F 13.5 °F 30.02 in WNW 1.0 mph 2.0 mph 86% 0.00 in 0 W/m2
07:30 16.9 °F 13.4 °F 30.02 in WNW 1.0 mph 2.0 mph 86% 0.00 in 0 W/m2
07:36 16.7 °F 13.2 °F 30.02 in NNW 1.0 mph 3.0 mph 86% 0.00 in 0 W/m2
07:42 16.5 °F 13.0 °F 30.03 in NNW 2.0 mph 3.0 mph 86% 0.00 in 5 W/m2
07:48 16.3 °F 12.8 °F 30.03 in NW 3.0 mph 3.0 mph 86% 0.00 in 9 W/m2
07:54 16.3 °F 12.8 °F 30.03 in West 2.0 mph 4.0 mph 86% 0.00 in 12 W/m2
08:00 16.3 °F 12.8 °F 30.03 in WNW 2.0 mph 2.0 mph 86% 0.00 in 16 W/m2
08:06 16.3 °F 12.8 °F 30.03 in WNW 2.0 mph 4.0 mph 86% 0.00 in 18 W/m2
08:12 16.3 °F 12.8 °F 30.03 in WNW 3.0 mph 4.0 mph 86% 0.00 in 12 W/m2
08:18 15.4 °F 12.0 °F 30.04 in North 4.0 mph 9.0 mph 86% 0.00 in 18 W/m2
08:24 14.5 °F 10.8 °F 30.04 in NW 6.0 mph 6.0 mph 85% 0.00 in 21 W/m2
08:30 13.8 °F 10.1 °F 30.06 in NW 6.0 mph 7.0 mph 85% 0.00 in 26 W/m2
08:36 13.5 °F 9.8 °F 30.06 in North 5.0 mph 7.0 mph 85% 0.00 in 39 W/m2
08:42 13.1 °F 9.2 °F 30.06 in NW 5.0 mph 5.0 mph 84% 0.00 in 42 W/m2
08:48 12.9 °F 9.0 °F 30.07 in NW 5.0 mph 8.0 mph 84% 0.00 in 49 W/m2
08:54 12.3 °F 8.1 °F 30.07 in NW 6.0 mph 9.0 mph 83% 0.00 in 46 W/m2
09:00 11.7 °F 7.3 °F 30.07 in NNW 5.0 mph 5.0 mph 82% 0.00 in 39 W/m2
09:06 11.2 °F 6.8 °F 30.08 in NW 7.0 mph 10.0 mph 82% 0.00 in 97 W/m2
09:12 11.1 °F 6.7 °F 30.09 in NW 6.0 mph 11.0 mph 82% 0.00 in 206 W/m2
09:18 11.3 °F 6.9 °F 30.10 in North 6.0 mph 11.0 mph 82% 0.00 in 271 W/m2
09:24 11.6 °F 6.9 °F 30.10 in NNW 5.0 mph 6.0 mph 81% 0.00 in 188 W/m2
09:30 11.7 °F 6.7 °F 30.10 in NW 5.0 mph 9.0 mph 80% 0.00 in 181 W/m2
09:36 11.7 °F 7.0 °F 30.11 in NNW 4.0 mph 9.0 mph 81% 0.00 in 204 W/m2
09:42 11.7 °F 7.0 °F 30.11 in North 4.0 mph 7.0 mph 81% 0.00 in 163 W/m2
09:48 11.5 °F 7.1 °F 30.12 in NW 5.0 mph 7.0 mph 82% 0.00 in 165 W/m2
09:54 11.4 °F 7.2 °F 30.12 in North 4.0 mph 8.0 mph 83% 0.00 in 188 W/m2
10:00 11.6 °F 7.4 °F 30.12 in North 4.0 mph 4.0 mph 83% 0.00 in 193 W/m2
10:06 11.8 °F 7.9 °F 30.12 in West 5.0 mph 6.0 mph 84% 0.00 in 269 W/m2
10:12 12.0 °F 8.1 °F 30.12 in NNE 5.0 mph 8.0 mph 84% 0.00 in 163 W/m2
10:18 11.8 °F 7.6 °F 30.13 in WNW 5.0 mph 9.0 mph 83% 0.00 in 151 W/m2
10:24 12.1 °F 7.9 °F 30.13 in WNW 5.0 mph 8.0 mph 83% 0.00 in 221 W/m2
10:30 12.8 °F 8.9 °F 30.13 in NNW 4.0 mph 7.0 mph 84% 0.00 in 237 W/m2
10:36 12.3 °F 8.1 °F 30.14 in NNW 4.0 mph 10.0 mph 83% 0.00 in 169 W/m2
10:42 11.8 °F 7.6 °F 30.14 in NNE 5.0 mph 7.0 mph 83% 0.00 in 294 W/m2
10:48 11.6 °F 7.2 °F 30.14 in NNE 6.0 mph 7.0 mph 82% 0.00 in 181 W/m2
10:54 11.9 °F 7.5 °F 30.14 in North 5.0 mph 6.0 mph 82% 0.00 in 244 W/m2
11:00 11.7 °F 7.3 °F 30.14 in NW 5.0 mph 7.0 mph 82% 0.00 in 253 W/m2
11:06 11.3 °F 6.9 °F 30.15 in NNW 7.0 mph 7.0 mph 82% 0.00 in 163 W/m2
11:12 11.2 °F 6.8 °F 30.15 in NW 6.0 mph 6.0 mph 82% 0.00 in 255 W/m2
11:18 11.4 °F 7.2 °F 30.15 in NW 4.0 mph 6.0 mph 83% 0.00 in 181 W/m2
11:24 11.5 °F 7.1 °F 30.15 in NW 5.0 mph 7.0 mph 82% 0.00 in 195 W/m2
11:30 11.3 °F 6.9 °F 30.16 in NW 5.0 mph 5.0 mph 82% 0.00 in 262 W/m2
11:36 11.3 °F 6.6 °F 30.16 in WNW 4.0 mph 6.0 mph 81% 0.00 in 422 W/m2
11:42 11.5 °F 6.5 °F 30.16 in WNW 5.0 mph 6.0 mph 80% 0.00 in 278 W/m2
11:48 11.1 °F 6.1 °F 30.16 in NNW 5.0 mph 7.0 mph 80% 0.00 in 309 W/m2
11:54 10.9 °F 5.9 °F 30.16 in NNW 5.0 mph 7.0 mph 80% 0.00 in 199 W/m2
12:00 10.5 °F 5.5 °F 30.16 in NW 4.0 mph 7.0 mph 80% 0.00 in 260 W/m2
12:06 10.7 °F 5.7 °F 30.16 in NW 4.0 mph 7.0 mph 80% 0.00 in 246 W/m2
12:12 10.4 °F 5.2 °F 30.16 in West 5.0 mph 6.0 mph 79% 0.00 in 216 W/m2
12:18 10.9 °F 5.9 °F 30.16 in NW 4.0 mph 6.0 mph 80% 0.00 in 320 W/m2
12:24 11.2 °F 6.0 °F 30.16 in WNW 4.0 mph 5.0 mph 79% 0.00 in 258 W/m2
12:30 11.3 °F 5.8 °F 30.16 in WNW 4.0 mph 4.0 mph 78% 0.00 in 306 W/m2
12:36 11.4 °F 5.6 °F 30.17 in NW 4.0 mph 10.0 mph 77% 0.00 in 281 W/m2
12:42 11.5 °F 5.4 °F 30.17 in NW 4.0 mph 4.0 mph 76% 0.00 in 339 W/m2
12:48 11.6 °F 5.2 °F 30.17 in NNW 4.0 mph 7.0 mph 75% 0.00 in 357 W/m2
12:54 11.5 °F 5.4 °F 30.17 in NNW 4.0 mph 9.0 mph 76% 0.00 in 288 W/m2
13:00 12.0 °F 6.2 °F 30.17 in NW 3.0 mph 3.0 mph 77% 0.00 in 241 W/m2
13:12 11.6 °F 6.1 °F 30.17 in NW 4.0 mph 4.0 mph 78% 0.00 in 223 W/m2
13:18 11.3 °F 6.1 °F 30.17 in NW 5.0 mph 9.0 mph 79% 0.00 in 190 W/m2
13:24 11.2 °F 6.0 °F 30.17 in WNW 5.0 mph 5.0 mph 79% 0.00 in 179 W/m2
13:30 11.2 °F 6.2 °F 30.17 in WNW 4.0 mph 4.0 mph 80% 0.00 in 137 W/m2
13:36 11.0 °F 6.3 °F 30.17 in WNW 4.0 mph 4.0 mph 81% 0.00 in 116 W/m2
13:42 10.9 °F 6.5 °F 30.18 in NW 4.0 mph 4.0 mph 82% 0.00 in 172 W/m2
13:48 11.0 °F 6.8 °F 30.18 in NW 5.0 mph 5.0 mph 83% 0.00 in 193 W/m2
13:54 11.2 °F 7.0 °F 30.18 in NW 4.0 mph 7.0 mph 83% 0.00 in 142 W/m2
14:00 11.4 °F 7.5 °F 30.18 in WNW 3.0 mph 4.0 mph 84% 0.00 in 134 W/m2
14:06 11.5 °F 7.6 °F 30.18 in NW 4.0 mph 8.0 mph 84% 0.00 in 199 W/m2
14:12 11.5 °F 7.1 °F 30.17 in West 6.0 mph 8.0 mph 82% 0.00 in 156 W/m2
14:18 11.4 °F 6.4 °F 30.18 in NW 6.0 mph 9.0 mph 80% 0.00 in 144 W/m2
14:24 11.5 °F 6.5 °F 30.18 in WNW 5.0 mph 6.0 mph 80% 0.00 in 118 W/m2
14:30 11.6 °F 6.3 °F 30.19 in WNW 5.0 mph 5.0 mph 79% 0.00 in 123 W/m2
14:36 11.5 °F 6.2 °F 30.19 in WNW 6.0 mph 7.0 mph 79% 0.00 in 105 W/m2
14:42 11.4 °F 6.2 °F 30.19 in WNW 5.0 mph 6.0 mph 79% 0.00 in 97 W/m2
14:48 11.5 °F 6.5 °F 30.19 in WNW 4.0 mph 6.0 mph 80% 0.00 in 81 W/m2
14:54 11.5 °F 6.5 °F 30.20 in NW 4.0 mph 4.0 mph 80% 0.00 in 121 W/m2
15:00 11.4 °F 6.4 °F 30.20 in NW 5.0 mph 5.0 mph 80% 0.00 in 121 W/m2
15:06 11.4 °F 6.4 °F 30.20 in WNW 5.0 mph 6.0 mph 80% 0.00 in 113 W/m2
15:12 11.4 °F 6.2 °F 30.20 in NW 4.0 mph 5.0 mph 79% 0.00 in 98 W/m2
15:18 11.2 °F 6.2 °F 30.20 in WNW 4.0 mph 7.0 mph 80% 0.00 in 93 W/m2
15:24 11.0 °F 6.0 °F 30.21 in WNW 5.0 mph 5.0 mph 80% 0.00 in 95 W/m2
15:30 11.0 °F 6.3 °F 30.21 in WNW 4.0 mph 4.0 mph 81% 0.00 in 109 W/m2
15:36 11.1 °F 6.4 °F 30.21 in WNW 5.0 mph 5.0 mph 81% 0.00 in 100 W/m2
15:42 11.2 °F 6.0 °F 30.21 in WNW 5.0 mph 7.0 mph 79% 0.00 in 70 W/m2
15:48 11.1 °F 5.6 °F 30.21 in NW 5.0 mph 7.0 mph 78% 0.00 in 63 W/m2
15:54 11.1 °F 5.6 °F 30.22 in WNW 5.0 mph 5.0 mph 78% 0.00 in 49 W/m2
16:00 11.2 °F 5.7 °F 30.22 in WNW 4.0 mph 4.0 mph 78% 0.00 in 44 W/m2
16:06 11.2 °F 5.7 °F 30.22 in NW 4.0 mph 4.0 mph 78% 0.00 in 42 W/m2
16:12 11.2 °F 5.4 °F 30.22 in WNW 4.0 mph 6.0 mph 77% 0.00 in 33 W/m2
16:18 11.1 °F 5.6 °F 30.22 in WNW 4.0 mph 6.0 mph 78% 0.00 in 35 W/m2
16:24 11.1 °F 5.6 °F 30.23 in WNW 5.0 mph 7.0 mph 78% 0.00 in 28 W/m2
16:30 11.1 °F 5.3 °F 30.23 in NW 5.0 mph 8.0 mph 77% 0.00 in 28 W/m2
16:36 11.2 °F 5.4 °F 30.23 in NW 4.0 mph 8.0 mph 77% 0.00 in 28 W/m2
16:42 11.3 °F 5.2 °F 30.23 in WNW 4.0 mph 5.0 mph 76% 0.00 in 26 W/m2
16:48 11.3 °F 5.2 °F 30.23 in WNW 3.0 mph 5.0 mph 76% 0.00 in 18 W/m2
16:54 11.2 °F 5.4 °F 30.24 in WNW 3.0 mph 6.0 mph 77% 0.00 in 12 W/m2
17:00 11.0 °F 5.5 °F 30.24 in WNW 4.0 mph 4.0 mph 78% 0.00 in 9 W/m2
17:06 10.9 °F 5.7 °F 30.24 in WNW 4.0 mph 5.0 mph 79% 0.00 in 5 W/m2
17:12 10.8 °F 6.1 °F 30.24 in WNW 4.0 mph 4.0 mph 81% 0.00 in 0 W/m2
17:18 10.8 °F 6.1 °F 30.24 in WNW 3.0 mph 5.0 mph 81% 0.00 in 0 W/m2
17:24 10.8 °F 6.4 °F 30.24 in West 3.0 mph 4.0 mph 82% 0.00 in 0 W/m2
17:30 10.9 °F 6.5 °F 30.24 in WNW 3.0 mph 4.0 mph 82% 0.00 in 0 W/m2
17:36 10.9 °F 6.5 °F 30.24 in West 3.0 mph 4.0 mph 82% 0.00 in 0 W/m2
17:42 11.0 °F 6.3 °F 30.24 in West 3.0 mph 11.0 mph 81% 0.00 in 0 W/m2
17:48 11.1 °F 6.4 °F 30.25 in WNW 3.0 mph 11.0 mph 81% 0.00 in 0 W/m2
17:54 11.1 °F 6.4 °F 30.25 in West 3.0 mph 4.0 mph 81% 0.00 in 0 W/m2
18:00 11.1 °F 6.4 °F 30.25 in West 3.0 mph 7.0 mph 81% 0.00 in 0 W/m2
18:06 11.1 °F 6.4 °F 30.26 in WNW 3.0 mph 7.0 mph 81% 0.00 in 0 W/m2
18:12 11.1 °F 6.7 °F 30.26 in West 3.0 mph 3.0 mph 82% 0.00 in 0 W/m2
18:18 11.0 °F 6.6 °F 30.26 in SW 3.0 mph 4.0 mph 82% 0.00 in 0 W/m2
18:24 11.0 °F 6.6 °F 30.26 in WSW 2.0 mph 3.0 mph 82% 0.00 in 0 W/m2
18:30 10.9 °F 6.5 °F 30.26 in WSW 3.0 mph 3.0 mph 82% 0.00 in 0 W/m2
18:36 10.7 °F 6.3 °F 30.26 in WSW 3.0 mph 4.0 mph 82% 0.00 in 0 W/m2
18:42 10.7 °F 6.3 °F 30.27 in WSW 3.0 mph 3.0 mph 82% 0.00 in 0 W/m2
18:48 10.7 °F 6.6 °F 30.27 in WSW 3.0 mph 3.0 mph 83% 0.00 in 0 W/m2
18:54 10.7 °F 6.6 °F 30.27 in West 2.0 mph 3.0 mph 83% 0.00 in 0 W/m2
19:00 10.7 °F 6.6 °F 30.27 in West 3.0 mph 4.0 mph 83% 0.00 in 0 W/m2
19:06 10.7 °F 6.6 °F 30.27 in WSW 3.0 mph 4.0 mph 83% 0.00 in 0 W/m2
19:12 10.6 °F 6.5 °F 30.27 in SW 3.0 mph 4.0 mph 83% 0.00 in 0 W/m2
19:18 10.7 °F 6.6 °F 30.28 in WSW 4.0 mph 6.0 mph 83% 0.00 in 0 W/m2
19:24 10.7 °F 6.6 °F 30.28 in NW 3.0 mph 4.0 mph 83% 0.00 in 0 W/m2
19:30 10.7 °F 6.6 °F 30.28 in West 2.0 mph 4.0 mph 83% 0.00 in 0 W/m2
19:36 10.7 °F 6.6 °F 30.29 in West 2.0 mph 4.0 mph 83% 0.00 in 0 W/m2
19:42 10.7 °F 6.6 °F 30.29 in WNW 2.0 mph 3.0 mph 83% 0.00 in 0 W/m2
19:48 10.7 °F 6.8 °F 30.29 in WNW 2.0 mph 3.0 mph 84% 0.00 in 0 W/m2
19:54 10.8 °F 6.9 °F 30.29 in West 2.0 mph 3.0 mph 84% 0.00 in 0 W/m2
20:00 10.9 °F 7.0 °F 30.29 in WSW 3.0 mph 3.0 mph 84% 0.00 in 0 W/m2
20:06 10.9 °F 7.0 °F 30.29 in WSW 3.0 mph 3.0 mph 84% 0.00 in 0 W/m2
20:12 10.9 °F 6.8 °F 30.29 in WSW 2.0 mph 3.0 mph 83% 0.00 in 0 W/m2
20:18 10.9 °F 6.8 °F 30.29 in WSW 1.0 mph 3.0 mph 83% 0.00 in 0 W/m2
20:24 10.9 °F 7.0 °F 30.29 in WSW 1.0 mph 2.0 mph 84% 0.00 in 0 W/m2
20:30 10.9 °F 6.8 °F 30.29 in West 1.0 mph 1.0 mph 83% 0.00 in 0 W/m2
20:36 10.8 °F 6.7 °F 30.29 in SW 1.0 mph 3.0 mph 83% 0.00 in 0 W/m2
20:42 10.7 °F 6.6 °F 30.30 in WSW 2.0 mph 2.0 mph 83% 0.00 in 0 W/m2
20:48 10.7 °F 6.6 °F 30.30 in WSW 2.0 mph 3.0 mph 83% 0.00 in 0 W/m2
20:54 10.7 °F 6.6 °F 30.30 in WSW 1.0 mph 2.0 mph 83% 0.00 in 0 W/m2
21:00 10.8 °F 6.7 °F 30.30 in WSW 1.0 mph 1.0 mph 83% 0.00 in 0 W/m2
21:06 10.9 °F 6.8 °F 30.30 in West 1.0 mph 2.0 mph 83% 0.00 in 0 W/m2
21:12 11.0 °F 6.8 °F 30.30 in West 1.0 mph 1.0 mph 83% 0.00 in 0 W/m2
21:18 11.1 °F 6.9 °F 30.30 in WSW 1.0 mph 4.0 mph 83% 0.00 in 0 W/m2
21:24 11.1 °F 7.2 °F 30.30 in WSW 1.0 mph 2.0 mph 84% 0.00 in 0 W/m2
21:30 11.2 °F 7.3 °F 30.30 in SW 1.0 mph 1.0 mph 84% 0.00 in 0 W/m2
21:36 11.2 °F 7.3 °F 30.29 in SW 1.0 mph 2.0 mph 84% 0.00 in 0 W/m2
21:42 11.1 °F 7.2 °F 30.29 in WSW 2.0 mph 4.0 mph 84% 0.00 in 0 W/m2
21:48 11.1 °F 7.2 °F 30.29 in WSW 2.0 mph 4.0 mph 84% 0.00 in 0 W/m2
21:54 11.0 °F 7.4 °F 30.29 in West 2.0 mph 4.0 mph 85% 0.00 in 0 W/m2
22:00 11.1 °F 7.5 °F 30.29 in SW 2.0 mph 4.0 mph 85% 0.00 in 0 W/m2
22:06 11.1 °F 7.5 °F 30.30 in SW 1.0 mph 4.0 mph 85% 0.00 in 0 W/m2
22:12 11.1 °F 7.5 °F 30.30 in WSW 2.0 mph 2.0 mph 85% 0.00 in 0 W/m2
22:18 11.1 °F 7.5 °F 30.30 in WSW 3.0 mph 5.0 mph 85% 0.00 in 0 W/m2
22:24 11.1 °F 7.5 °F 30.30 in WSW 2.0 mph 5.0 mph 85% 0.00 in 0 W/m2
22:30 11.2 °F 7.6 °F 30.30 in WSW 2.0 mph 2.0 mph 85% 0.00 in 0 W/m2
22:36 11.2 °F 7.8 °F 30.29 in WSW 1.0 mph 2.0 mph 86% 0.00 in 0 W/m2
22:42 11.3 °F 7.9 °F 30.29 in WSW 1.0 mph 3.0 mph 86% 0.00 in 0 W/m2
22:48 11.2 °F 7.8 °F 30.29 in SW 2.0 mph 3.0 mph 86% 0.00 in 0 W/m2
22:54 11.2 °F 7.8 °F 30.29 in West 2.0 mph 3.0 mph 86% 0.00 in 0 W/m2
23:00 11.2 °F 7.8 °F 30.29 in SW 2.0 mph 3.0 mph 86% 0.00 in 0 W/m2
23:06 11.1 °F 7.7 °F 30.29 in SW 2.0 mph 3.0 mph 86% 0.00 in 0 W/m2
23:12 11.1 °F 7.7 °F 30.29 in SW 1.0 mph 2.0 mph 86% 0.00 in 0 W/m2
23:18 11.1 °F 7.7 °F 30.29 in SW 1.0 mph 2.0 mph 86% 0.00 in 0 W/m2
23:24 11.1 °F 7.7 °F 30.29 in SW 1.0 mph 2.0 mph 86% 0.00 in 0 W/m2
23:30 11.1 °F 7.7 °F 30.28 in SW 1.0 mph 1.0 mph 86% 0.00 in 0 W/m2
23:36 11.1 °F 7.7 °F 30.28 in SW 1.0 mph 1.0 mph 86% 0.00 in 0 W/m2
23:42 11.1 °F 7.7 °F 30.28 in SW 1.0 mph 1.0 mph 86% 0.00 in 0 W/m2
23:48 11.1 °F 7.5 °F 30.28 in West 1.0 mph 2.0 mph 85% 0.00 in 0 W/m2
23:54 11.1 °F 7.5 °F 30.27 in West 1.0 mph 4.0 mph 85% 0.00 in 0 W/m2
Country Meadow, Clay, NY, USA
Compliments of Weather Underground - 2 mb